Regional Weather Roundup
Issued by NWS

Home | Current Version | Previous Version | Graphics & Text | Print | Product List | Glossary On
Versions: 1 2 3 4 5 6 7 8 9 10 11 12 13 14 15 16 17 18 19 20 21 22 23 24 25 26 27 28 29 30 31 32 33 34 35 36 37 38 39 40 41 42 43 44 45 46 47 48 49 50
684
ASUS43 KLOT 211308
RWRIL

ILLINOIS REGIONAL WEATHER ROUNDUP
NATIONAL WEATHER SERVICE CHICAGO/ROMEOVILLE IL
800 AM CDT MON AUG 21 2017

NOTE: "FAIR" INDICATES FEW OR NO CLOUDS BELOW 12,000 FEET WITH NO
SIGNIFICANT WEATHER AND/OR OBSTRUCTIONS TO VISIBILITY.

* THESE STATIONS ARE NOT UNDER NWS QUALITY CONTROL. THEY ALSO MAY NOT
  REPORT WEATHER SUCH AS PRECIPITATION OR FOG.

ILZ001-002-007-009-015-016-024-211400-
NORTHWEST ILLINOIS

CITY           SKY/WX    TMP DP  RH WIND       PRES   REMARKS
MOLINE         RAIN      72  66  81 NW9G20    30.11F
STERLING*      CLOUDY    69  68  96 W6        30.12R FOG
SAVANNA*       CLOUDY    69  68  99 CALM      30.11S FOG
$$

ILZ003-004-008-010-011-017-018-211400-
NORTH CENTRAL ILLINOIS

CITY           SKY/WX    TMP DP  RH WIND       PRES   REMARKS
ROCKFORD       CLOUDY    71  68  90 CALM      30.09R FOG
FREEPORT*      FOG       66  66 100 W6        30.12R VSB 1/4
ROCHELLE*      FOG       68  68 100 W3        30.09R VSB 1/2
DE KALB*       FOG       69  68  99 W6        30.09R VSB 1/4
PERU*          CLOUDY    70  67  92 W8        30.10R
$$

ILZ005-006-012>014-019>023-211400-
NORTHEAST ILLINOIS

CITY           SKY/WX    TMP DP  RH WIND       PRES   REMARKS
CHICAGO-OHARE  CLOUDY    73  68  84 SW5       30.05S
CHICAGO-MIDWAY CLOUDY    75  70  84 SW9       30.05S
AURORA         CLOUDY    71  69  93 SW7       30.08R FOG
LANSING*       PTSUNNY   74  69  85 W8        30.08R
JOLIET*        MOSUNNY   72  71  98 S3        30.08R
WAUKEGAN       CLOUDY    72  70  93 VRB3      30.06R
DUPAGE AIRPORT CLOUDY    71  71 100 SW3       30.06S FOG
KANKAKEE*      CLOUDY    72  72  98 SW5       30.08S
WHEELING       MOSUNNY   73  70  90 W3        30.06F
MORRIS*        PTSUNNY   69  68  97 CALM      30.07R FOG
ROMEOVILLE*    CLOUDY    71  68  91 N5        30.07S FOG
NORTHERLY ISL    N/A     75  68  78 S5          N/A
$$

LMZ740>746-211400-
SOUTHERN LAKE MICHIGAN

STATION/POSITION SKY/WX   TEMP    WIND        PRES    VSBY  WAVE
                          AIR SEA DIR/SP/G                  HT/PER
                          (F)     (DEG/KT/KT) (MB)    (MI)  (FT/S)
SOUTHERN BUOY              72 71  220/  6/  6 1017.8R         1/ 3
WILMETTE HARBOR            73 74  290/  2/  4   N/A           1/ 3
HARRISON CRIB              75     210/ 12/ 13   N/A
CALUMET HARBOR             74     200/  8/ 10 1017.4R
BURNS HARBOR               74     180/  8/ 16 1018.6R
MICHIGAN CITY              73     160/ 12/ 15   N/A
MICHIGAN CITY 6N           73 74  210/  8/ 12   N/A           1/ 2
ST. JOSEPH                 73 74  220/  8/  8 1017.9          1/ 3
$$

ILZ025>027-034>036-040-047-049-050-058-095>099-211400-
WEST-CENTRAL ILLINOIS

CITY           SKY/WX    TMP DP  RH WIND       PRES   REMARKS
QUINCY         CLOUDY    72  69  90 S8        30.08S
GALESBURG*     TSTM      68  66  93 NE6       30.15S
MACOMB*        TSTM      69  68  97 W8G23     30.15R
JACKSONVILLE*  CLOUDY    74  72  91 S7        30.08F
PITTSFIELD*    CLOUDY    75  73  92 S5        30.10F
$$

ILZ028>032-037-038-041>044-048-051>054-059>061-211400-
CENTRAL ILLINOIS

CITY           SKY/WX    TMP DP  RH WIND       PRES   REMARKS
PONTIAC        PTSUNNY   73  73  99 SW3       30.09R
BLOOMINGTON    CLOUDY    72  71  97 SW8       30.11S
DECATUR        CLOUDY    75  72  90 SW9       30.10R
PEORIA         CLOUDY    72  71  97 S3        30.09R
LACON*         CLOUDY    70  70 100 CALM      30.08R
LINCOLN*       CLOUDY    74  74 100 S3        30.08S
SPRINGFIELD    CLOUDY    78  75  90 SW5       30.09S HX  81
TAYLORVILLE    CLOUDY    75  74  95 SW6       30.10F
$$

ILZ033-039-045-046-055>057-062-063-211400-
EAST-CENTRAL ILLINOIS

CITY           SKY/WX    TMP DP  RH WIND       PRES   REMARKS
CHAMPAIGN      CLOUDY    74  72  93 S9        30.10S
RANTOUL*       CLOUDY    75  74  97 CALM      30.10S
MATTOON        PTSUNNY   75  73  93 S8        30.11R
PARIS*         MOSUNNY   75  73  91 SW9       30.12S
$$

ILZ079-100>102-211400-
SOUTHWEST ILLINOIS

CITY           SKY/WX    TMP DP  RH WIND       PRES   REMARKS
ALTON          PTSUNNY   75  73  94 SE5       30.11R
BELLEVILLE     MOSUNNY   76  73  90 S3        30.12R
CAHOKIA*       SUNNY     78  72  81 S3        30.10S HX  80
SPARTA*        SUNNY     74  72  91 CALM      30.13R
$$

ILZ064>066-069>071-074>076-080>082-084>086-088>090-092>094-211400-
SOUTH-CENTRAL ILLINOIS

CITY           SKY/WX    TMP DP  RH WIND       PRES   REMARKS
CARBONDALE     SUNNY     75  72  90 CALM      30.13S
CAIRO*         SUNNY     75  73  95 CALM      30.13S
EFFINGHAM*     CLOUDY    76  74  93 CALM      30.14R
MARION         MOSUNNY   77  75  94 SE5       30.14S
MT. VERNON       N/A     75  71  87 CALM      30.13S
CENTRALIA*     MOSUNNY   75  71  86 S7        30.11S
SALEM*         CLOUDY    77  71  81 S3        30.13S
METROPOLIS*    SUNNY     75  71  89 CALM      30.14F
$$

ILZ067-068-072-073-078-083-087-091-211400-
SOUTHEAST ILLINOIS

CITY           SKY/WX    TMP DP  RH WIND       PRES   REMARKS
LAWRENCEVILLE  MOSUNNY   74  70  87 S5        30.13S
FLORA*         CLOUDY    76  73  88 CALM      30.13R
FAIRFIELD*     MOSUNNY   75  72  91 CALM      30.12S
HARRISBURG*    SUNNY     74  72  92 CALM      30.14S
ROBINSON*      MOSUNNY   75  71  88 S6        30.13S
CARMI*         SUNNY     74  72  96 S3        30.13S
$$

ABBREVIATIONS USED IN REMARKS
   TC - TEMPERATURE IN CELSIUS
  WCI - WIND CHILL INDEX
   HX - HEAT INDEX
  VSB - VISIBILITY
$$





USA.gov is the U.S. government's official web portal to all federal, state and local government web resources and services.